Showing default

OPS 6638 (VELA 7), 2765

Orbit data source: Space-Track

OPS 6638 (VELA 7), 2765 is a payload satellite owned by USAF SSD (US) in HEO that was launched on Fri, 28 Apr 1967 UTC via a TITAN IIIC launch vehicle from the Air Force Eastern Test Range (AFETR). Payload-class satellites include a variety of spacecraft equipped with specific instruments for various scientific and technological missions. These include communications satellites like Starlink; space stations such as the ISS; scientific satellites like the Hubble; Earth observation satellites from companies like Planet Labs, Umbra, and HawkEye 360; GPS; miniature CubeSats for education and research; and military/defense satellites.

Loading next visibility...
Identifier
2765, 1967-040A
Orbit
HEO
Country
Flag of USUS
Related business
Manufacturer
TRW
Mission
Spacecraft
Bus & Motor
VELA, BE-3
Mass
331 kg wet, 221 kg dry
Launch date (UTC)
1967-04-28 (59 years ago)
Launch vehicle
TITAN IIIC
Launch site
Air Force Eastern Test Range (AFETR)
Object type
Payload
Rocket body
Debris
Shape & HBR
Unknown
Radar Cross Section
RCS unknown

Expand to show TLE details & history
Last TLE update: 1 month ago

TLE from 1 month ago
0 OPS 6638 (VELA 7)
1 02765U 67040A   26033.04571133 -.00001390  00000-0  00000-0 0  9999
2 02765  40.2332   8.7346 5059431 289.1160 358.9814  0.21528609 13182
Epoch: 2026-02-02T01:05Z
TLE epoch observation values (Epoch: 2026-02-02T01:05:49.458Z)
Latitude
-38.92507°
Longitude
147.1606°
Altitude
50,687.924 km
Speed
3.253 km/s
True Right ascension
19h 43m 27s
True Declination
-38° 54' 15"
Sunlit
Object was in daylight at epoch
Visualization orbit readout
Latitude
Unknown
Longitude
Unknown
Altitude
Unknown
Speed
Unknown
Apparent Right ascension
Unknown
Apparent Declination
Unknown
Sunlit
N/A
Visualization observer readout
Local Sidereal Time
22:37:26
Azimuth
Unknown
Elevation
Unknown
Doppler factor
Unknown
Orbital elements
Apogee altitude
170,714.633 km
Perigee altitude
51,720.94 km
Semi-major axis
117,595.924 km
Eccentricity
0.50594
Inclination
40.2332°
RAAN
8.7346°
Arg. of periapsis
289.116°
True anomaly
356.40209°
Mean anomaly
358.9814°
Eccentric anomaly
357.93875°
Mean motion
0.05382 °/min
Orbital period
6,688.79 mins
BSTAR
0
Loading maneuver chart data...
Computing Atmospheric mass density...
Loading historical data...
Loading historical data...
Loading historical data...
Loading historical data...
Loading historical data...
Loading historical data...
Loading historical data...

Documentation

Showing up to 5 results
|